TimeCST,TemperatureF,Dew PointF,Humidity,Sea Level PressureIn,VisibilityMPH,Wind Direction,Wind SpeedMPH,Gust SpeedMPH,PrecipitationIn,Events,Conditions,WindDirDegrees,DateUTC
12:15 AM,44.4,44.4,100,30.24,0.2,Calm,Calm,-,N/A,Fog,Fog,0,2013-01-20 06:15:00
12:35 AM,45.9,45.9,100,30.24,0.2,Calm,Calm,-,N/A,Fog,Fog,0,2013-01-20 06:35:00
12:55 AM,45.3,45.3,100,30.23,0.5,Calm,Calm,-,N/A,Fog,Fog,0,2013-01-20 06:55:00
1:15 AM,43.3,43.3,100,30.23,0.5,Calm,Calm,-,N/A,Fog,Fog,0,2013-01-20 07:15:00
1:35 AM,43.2,43.2,100,30.23,0.5,Calm,Calm,-,N/A,Fog,Fog,0,2013-01-20 07:35:00
1:55 AM,43.2,43.2,100,30.23,4.0,NNE,3.5,-,N/A,,Clear,30,2013-01-20 07:55:00
2:15 AM,42.3,42.3,100,30.23,5.0,NE,3.5,-,N/A,,Clear,40,2013-01-20 08:15:00
2:35 AM,42.3,42.3,100,30.23,7.0,NE,3.5,-,N/A,,Clear,40,2013-01-20 08:35:00
2:55 AM,42.3,42.3,100,30.22,4.0,NE,3.5,-,N/A,,Clear,40,2013-01-20 08:55:00
3:15 AM,41.9,41.9,100,30.21,5.0,NE,3.5,-,N/A,,Clear,40,2013-01-20 09:15:00
3:35 AM,41.5,41.5,100,30.22,0.2,NE,4.6,-,N/A,Fog,Fog,50,2013-01-20 09:35:00
3:55 AM,41.2,41.2,100,30.22,0.2,NE,3.5,-,N/A,Fog,Fog,50,2013-01-20 09:55:00
4:15 AM,42.4,42.4,100,30.21,0.2,NE,3.5,-,N/A,Fog,Fog,50,2013-01-20 10:15:00
4:35 AM,45.0,45.0,100,30.21,0.2,Calm,Calm,-,N/A,Fog,Fog,0,2013-01-20 10:35:00
4:55 AM,43.7,43.7,100,30.21,0.2,NE,3.5,-,N/A,Fog,Fog,40,2013-01-20 10:55:00
5:15 AM,42.3,42.3,100,30.21,0.2,NE,3.5,-,N/A,Fog,Fog,40,2013-01-20 11:15:00
5:35 AM,43.2,43.2,100,30.21,0.5,NE,3.5,-,N/A,Fog,Fog,40,2013-01-20 11:35:00
5:55 AM,42.3,42.3,100,30.21,0.2,NE,3.5,-,N/A,Fog,Fog,40,2013-01-20 11:55:00
6:15 AM,42.3,42.3,100,30.21,0.2,NE,3.5,-,N/A,Fog,Fog,40,2013-01-20 12:15:00
6:35 AM,43.0,43.0,100,30.21,0.2,Calm,Calm,-,N/A,Fog,Fog,0,2013-01-20 12:35:00
6:55 AM,41.7,41.7,100,30.22,0.2,Calm,Calm,-,N/A,Fog,Fog,0,2013-01-20 12:55:00
7:15 AM,41.0,41.0,100,30.23,0.2,Calm,Calm,-,N/A,Fog,Fog,0,2013-01-20 13:15:00
7:35 AM,41.2,41.2,100,30.22,0.2,Calm,Calm,-,N/A,Fog,Fog,0,2013-01-20 13:35:00
7:55 AM,42.8,42.8,100,30.24,0.2,Calm,Calm,-,N/A,Fog,Fog,0,2013-01-20 13:55:00
8:15 AM,44.6,44.6,100,30.24,0.2,Calm,Calm,-,N/A,Fog,Fog,0,2013-01-20 14:15:00
8:35 AM,47.3,47.3,100,30.26,0.2,Calm,Calm,-,N/A,Fog,Fog,0,2013-01-20 14:35:00
8:55 AM,49.5,49.5,100,30.26,0.2,Calm,Calm,-,N/A,Fog,Fog,0,2013-01-20 14:55:00
9:15 AM,52.9,52.9,100,30.26,0.5,Calm,Calm,-,N/A,Fog,Fog,0,2013-01-20 15:15:00
9:35 AM,57.4,57.4,100,30.27,5.0,East,3.5,-,N/A,,Scattered Clouds,80,2013-01-20 15:35:00
9:55 AM,59.9,59.9,100,30.27,10.0,ESE,4.6,-,N/A,,Clear,110,2013-01-20 15:55:00
10:15 AM,61.7,61.7,100,30.27,10.0,ESE,4.6,-,N/A,,Clear,110,2013-01-20 16:15:00
10:35 AM,62.6,62.6,100,30.27,10.0,East,5.8,-,N/A,,Clear,90,2013-01-20 16:35:00
10:55 AM,66.4,58.5,76,30.26,10.0,East,3.5,-,N/A,,Clear,80,2013-01-20 16:55:00
11:15 AM,68.4,55.4,63,30.26,10.0,Calm,Calm,-,N/A,,Scattered Clouds,0,2013-01-20 17:15:00
11:35 AM,70.7,53.4,54,30.25,10.0,Calm,Calm,-,N/A,,Scattered Clouds,0,2013-01-20 17:35:00
11:55 AM,72.1,51.8,49,30.24,10.0,WSW,3.5,-,N/A,,Scattered Clouds,240,2013-01-20 17:55:00
12:15 PM,71.2,52.0,51,30.22,10.0,Calm,Calm,-,N/A,,Scattered Clouds,0,2013-01-20 18:15:00
12:35 PM,72.9,50.4,45,30.21,10.0,East,4.6,-,N/A,,Scattered Clouds,100,2013-01-20 18:35:00
12:55 PM,69.6,49.1,48,30.19,10.0,Calm,Calm,-,N/A,,Clear,0,2013-01-20 18:55:00
1:15 PM,70.0,49.1,47,30.18,10.0,Calm,Calm,-,N/A,,Scattered Clouds,0,2013-01-20 19:15:00
1:35 PM,70.5,48.9,46,30.17,10.0,Calm,Calm,-,N/A,,Mostly Cloudy,0,2013-01-20 19:35:00
1:55 PM,70.7,48.7,46,30.16,10.0,Calm,Calm,-,N/A,,Overcast,0,2013-01-20 19:55:00
2:15 PM,70.9,48.4,45,30.15,10.0,Calm,Calm,-,N/A,,Overcast,0,2013-01-20 20:15:00
2:35 PM,71.2,48.2,44,30.14,10.0,Calm,Calm,-,N/A,,Mostly Cloudy,0,2013-01-20 20:35:00
2:55 PM,69.8,50.0,49,30.14,10.0,ESE,3.5,-,N/A,,Mostly Cloudy,110,2013-01-20 20:55:00
3:15 PM,71.4,51.6,50,30.13,10.0,SE,9.2,-,N/A,,Overcast,130,2013-01-20 21:15:00
3:35 PM,72.0,53.2,52,30.13,10.0,SE,8.1,-,N/A,,Overcast,140,2013-01-20 21:35:00
3:55 PM,72.3,53.2,51,30.13,10.0,SSE,10.4,-,N/A,,Overcast,150,2013-01-20 21:55:00
4:15 PM,71.6,52.9,52,30.13,10.0,South,10.4,-,N/A,,Scattered Clouds,170,2013-01-20 22:15:00
4:35 PM,68.9,52.5,56,30.14,10.0,SSE,9.2,-,N/A,,Scattered Clouds,160,2013-01-20 22:35:00
4:55 PM,66.2,51.8,60,30.13,10.0,SSE,8.1,-,N/A,,Scattered Clouds,160,2013-01-20 22:55:00
5:15 PM,66.7,53.6,63,30.14,10.0,SSE,8.1,-,N/A,,Clear,150,2013-01-20 23:15:00
5:35 PM,65.1,53.8,67,30.14,10.0,SSE,8.1,-,N/A,,Clear,150,2013-01-20 23:35:00
5:55 PM,63.0,54.0,72,30.14,10.0,SE,6.9,-,N/A,,Clear,140,2013-01-20 23:55:00
6:15 PM,60.4,53.2,77,30.14,10.0,ESE,5.8,-,N/A,,Clear,120,2013-01-21 00:15:00
6:35 PM,58.5,53.1,82,30.14,10.0,ESE,4.6,-,N/A,,Clear,120,2013-01-21 00:35:00
6:55 PM,57.4,53.2,86,30.16,10.0,ESE,3.5,-,N/A,,Clear,120,2013-01-21 00:55:00
7:15 PM,56.5,55.6,97,30.16,10.0,East,4.6,-,N/A,,Clear,100,2013-01-21 01:15:00
7:35 PM,55.4,55.4,100,30.16,10.0,ESE,5.8,-,N/A,,Clear,110,2013-01-21 01:35:00
7:55 PM,54.9,54.9,100,30.16,10.0,ESE,5.8,-,N/A,,Clear,110,2013-01-21 01:55:00
8:15 PM,54.7,54.7,100,30.16,10.0,ESE,5.8,-,N/A,,Clear,110,2013-01-21 02:15:00
8:35 PM,53.6,53.6,100,30.16,10.0,ESE,5.8,-,N/A,,Clear,110,2013-01-21 02:35:00
8:55 PM,54.5,54.5,100,30.16,10.0,ESE,5.8,-,N/A,,Clear,110,2013-01-21 02:55:00
9:15 PM,54.5,54.5,100,30.16,10.0,ESE,4.6,-,N/A,,Clear,110,2013-01-21 03:15:00
9:35 PM,54.1,54.1,100,30.16,5.0,ESE,5.8,-,N/A,,Clear,110,2013-01-21 03:35:00
9:55 PM,53.8,53.8,100,30.16,3.0,ESE,4.6,-,N/A,,Clear,120,2013-01-21 03:55:00
10:15 PM,53.8,53.8,100,30.17,3.0,ESE,4.6,-,N/A,,Clear,110,2013-01-21 04:15:00
10:35 PM,53.8,53.8,100,30.17,2.5,ESE,4.6,-,N/A,,Clear,120,2013-01-21 04:35:00
10:55 PM,53.8,53.8,100,30.16,2.0,ESE,4.6,-,N/A,,Clear,110,2013-01-21 04:55:00
11:15 PM,53.6,53.6,100,30.17,3.0,ESE,4.6,-,N/A,,Clear,120,2013-01-21 05:15:00
11:35 PM,53.8,53.8,100,30.17,4.0,ESE,3.5,-,N/A,,Clear,120,2013-01-21 05:35:00
11:55 PM,53.8,53.8,100,30.16,3.0,ESE,4.6,-,N/A,,Clear,120,2013-01-21 05:55:00